Location: Marsån
(66.4167°N, 22.2833°E)
Time: 11:10:48
(UTC+00:00)

Cosmos 968 Rocket - Pass Details

Date: 24 February 2024
Orbit: 739 x 768 km, 74.0° (Epoch: 15 April)

Event Time Altitude Azimuth Distance (km) Brightness Sun altitude
Rises 17:42:42 0° 189° (S) 3,233 6.7 -14.5°
Reaches altitude 10° 17:45:11 10° 182° (S) 2,308 5.9 -14.7°
Maximum altitude 17:50:04 41° 114° (ESE) 1,100 3.8 -15.2°
Drops below altitude 10° 17:54:57 10° 45° (NE) 2,307 5.7 -15.7°
Sets 17:57:25 0° 39° (NE) 3,232 6.5 -15.9°
